Regional Weather Roundup
Issued by NWS

Home | Current Version | Previous Version | Text Only | Print | Product List | Glossary Off
Versions: 1 2 3 4 5 6 7 8 9 10 11 12 13 14 15 16 17 18 19 20 21 22 23 24 25 26 27 28 29 30 31 32 33 34 35 36 37 38 39 40 41 42 43 44 45 46 47 48 49 50

000
ASUS43 KMKX 012234
RWRWI

WISCONSIN REGIONAL WEATHER ROUNDUP
NATIONAL WEATHER SERVICE MILWAUKEE/SULLIVAN WI
600 PM CDT MON JUN 01 2015

NOTE: "FAIR" INDICATES FEW OR NO CLOUDS BELOW 12,000 FEET WITH NO
SIGNIFICANT WEATHER AND/OR OBSTRUCTIONS TO VISIBILITY.

WIZ001-002-006>008-014>016-023>028-020000-
NORTHWEST WISCONSIN

CITY           SKY/WX    TMP DP  RH WIND       PRES   REMARKS
SUPERIOR ARPT  SUNNY     48  33  55 NE13      30.20F
ASHLAND        SUNNY     59  36  42 NE14      30.21F
HAYWARD        SUNNY     68  33  27 S12       30.18F
SIREN          SUNNY     68  35  29 SE8       30.17F
CUMBERLAND     SUNNY     64  39  39 S10       30.19S
RICE LAKE      SUNNY     68  37  32 SE8       30.19F
CHETEK         SUNNY     68  44  41 SE6       30.18F
LADYSMITH      MOSUNNY   67  42  40 S7G17     30.21F
EAU CLAIRE     SUNNY     69  40  34 S12       30.17F
MENOMONIE      SUNNY     69  41  35 SE10      30.18F
NEW RICHMOND   MOSUNNY   67  39  36 S10       30.18S
OSCEOLA        MOSUNNY   69  38  32 S7        30.19F
$$

WIZ003>005-009-010-017-018-020000-
NORTH CENTRAL WISCONSIN

CITY           SKY/WX    TMP DP  RH WIND       PRES   REMARKS
MANITOWISH WTR SUNNY     67  32  27 S6        30.20F
ARBOR VITAE    SUNNY     67  30  25 SE13      30.21F
WOODRUFF       SUNNY     67  30  25 SE13      30.21F
RHINELANDER    SUNNY     66  30  26 VRB7      30.23F
EAGLE RIVER    SUNNY     67  26  21 SW3       30.21F
LAND O LAKES   SUNNY     68  25  19 SE10      30.22F
PHILLIPS       SUNNY     66  37  34 S8        30.20F
TOMAHAWK       SUNNY     66  37  33 S5        30.23S
MEDFORD        MOSUNNY   62  42  47 S7        30.22F
MERRILL        SUNNY     65  36  33 SE5       30.23F
$$

WIZ029-030-035-036-043>047-020000-
CENTRAL WISCONSIN

CITY           SKY/WX    TMP DP  RH WIND       PRES   REMARKS
WAUSAU         SUNNY     66  35  31 VRB3      30.21F
MOSINEE        SUNNY     64  36  34 E6        30.23F
MARSHFIELD     SUNNY     66  37  34 E9        30.22F
STEVENS POINT  SUNNY     63  34  33 SE6       30.23F
WAUPACA        SUNNY     68  34  28 NE7       30.23F
WAUTOMA        SUNNY     66  32  28 NE10      30.23F
WISC RAPIDS    SUNNY     68  24  19 S10       30.22F
CAMP DOUGLAS   MOSUNNY   68  37  32 E10       30.20F
$$

WIZ011>013-019>022-031-037>040-048>050-020000-
NORTHEAST WISCONSIN

CITY           SKY/WX    TMP DP  RH WIND       PRES   REMARKS
ANTIGO         SUNNY     63  38  39 SE8       30.24F
SHAWANO        SUNNY     66  37  33 SE6       30.26S
OCONTO         SUNNY     62  37  40 E8        30.26S
STURGEON BAY   SUNNY     61  34  36 NE9       30.28F
GREEN BAY      SUNNY     64  40  41 NE10      30.25F
MANITOWOC      SUNNY     59  35  40 NE8G17    30.26F
APPLETON       MOSUNNY   64  32  29 E12       30.24F
CLINTONVILLE   SUNNY     64  34  32 E9        30.24F
OSHKOSH        SUNNY     64  35  34 NE9       30.23F
$$

WIZ032>034-041-042-053>061-020000-
SOUTHWEST WISCONSIN

CITY           SKY/WX    TMP DP  RH WIND       PRES   REMARKS
LA CROSSE      SUNNY     71  33  24 E12       30.18F
SPARTA         SUNNY     68  28  22 SE7       30.20F
VIROQUA        SUNNY     68  33  27 E9        30.20S
BOSCOBEL       SUNNY     71  37  28 E9        30.18F
PRAIRIE DU CHI SUNNY     69  33  26 E5        30.17S
PLATTEVILLE    SUNNY     68  37  32 SE13      30.18F
$$

WIZ056-057-062-063-064-067-068-020000-
SOUTH CENTRAL WISCONSIN

CITY           SKY/WX    TMP DP  RH WIND       PRES   REMARKS
REEDSBURG      SUNNY     66  37  34 E6        30.20S
BARABOO/DELLS  SUNNY     65  35  32 NE7       30.21S
LONE ROCK      SUNNY     69  35  28 E10       30.20S
MINERAL POINT  SUNNY     68  32  26 E6        30.19F
MADISON        MOSUNNY   65  30  27 SE10      30.21S
MIDDLETON      SUNNY     67  26  21 SE12      30.21S
WATERTOWN      SUNNY     64  32  30 E8        30.21F
MONROE         SUNNY     64  39  39 NE7       30.19S
JANESVILLE     SUNNY     66  32  28 E12G17    30.19F
$$

WIZ051-052-058>065-066-070>072-020000-
SOUTHEAST WISCONSIN

CITY           SKY/WX    TMP DP  RH WIND       PRES   REMARKS
MILWAUKEE      MOSUNNY   55  34  45 NE12      30.24F
WAUKESHA       SUNNY     59  30  33 E12       30.23F
MILWAUKEE/TIMM SUNNY     59  25  27 NE10      30.24F
RACINE         SUNNY     55  37  50 N13       30.25F
BURLINGTON     SUNNY     59  35  39 E9        30.22S
KENOSHA        SUNNY     60  37  42 NE10      30.22F
FOND DU LAC    SUNNY     64  31  28 SE7       30.23F
SHEBOYGAN      SUNNY     59  39  47 NE12      30.25F
WEST BEND      SUNNY     61  32  33 E8        30.23F
JUNEAU         SUNNY     64  33  31 E8        30.23F
$$

LSZ147-162-020000-
LAKE SUPERIOR

STATION/POSITION TIME  TEMP    WIND        PRES    WAVE
                       AIR SEA DIR/SP/G            HT/PER
                 (UTC) (F)     (DEG/KT/KT) (MB)    (FT/S)
W MID LAKE BUOY  2150   39 37   40/  8/ 10   N/A     0
DEVILS ISLAND    2200   42      80/ 10/ 11   N/A
PORT WING        2140   46      30/ 19/ 21   N/A
SAXON HARBOR     2140   49      10/  7/  9   N/A
$$

LMZ867-665-643>646-020000-
LAKE MICHIGAN

STATION/POSITION TIME  TEMP    WIND        PRES    WAVE
                       AIR SEA DIR/SP/G            HT/PER
                 (UTC) (F)     (DEG/KT/KT) (MB)    (FT/S)
CHAMBERS ISLAND  2100   57     360/  5/  6   N/A
N MID LAKE BUOY  2150   44 37  330/  2/  4   N/A     0
NORTHPORT PIER   2100   52     130/  5/  6   N/A
SISTER BAY       2048   65     110/  9/ 12   N/A
ALGOMA LAKESHORE 2024           70/ 12/ 13   N/A
KEWAUNEE LAKESHO 2200   53      30/  7/ 11   N/A
SHEBOYGAN LAKESH 2200   49      10/  9/ 10   N/A
PORT WASHINGTON  2100   52      40/  9/ 11   N/A
ATWATER BUOY     2200   46      10/ 10/ 10   N/A
MILWAUKEE LAKESH 2200   49      20/ 12/ 14   N/A
S MID LAKE BUOY  2150   42 38  340/ 12/ 14   N/A     1/ 3
KENOSHA   LAKESH 2100   49      20/ 13/ 15   N/A
$$

TC  - TEMPERATURE IN CELSIUS
VSB - VISIBILITY IN STATUTE MILES
WCI - WIND CHILL INDEX
HX  - HEAT INDEX



USA.gov is the U.S. government's official web portal to all federal, state and local government web resources and services.